FENGYUN 1C DEB

Satellite information

Favourite Embed

Satellite Type and Status

DEBRISIN ORBIT

Key statistics

Satellite FENGYUN 1C DEB at a glance.

Uptime

9715

Days in orbit

Revolutions

≈ 14.2

Per day

Orbit

SSO

Sun Synchronous Orbit

Inclination

98.7

Latest

Satellite identification and parameters

Extended collection of information and parameters for FENGYUN 1C DEB.

Object identification

Identified? True

Debris? True

Object name: FENGYUN 1C DEB

International designator: 1999-025EXZ

Object number (NORAD): 41822

Object ID (CCSDS): 41822

Country: PEOPLES REPUBLIC OF CHINA (PRC)

Current information (Y/N): Y

RCS size: SMALL

Orbital parameters

Period: 101.068 minutes

Inclination: 98.7324 deg

SMA: 7187.353 km

Apoapsis: 848.991 km

Periapsis: 769.446 km

RAAN: 51.8512 deg

Eccentricy: 0.00553368

Argument of periapsis: 223.632 deg

Mean anomaly: 136.0477 deg

Mean motion: 14.24784752 rev/day

Mean motion (dot): 0.00005882 rev/day2

B* drag term: 0.0025006795 1/REarth

Two-line elements (TLE)

Creation date: Dec. 11, 2025, 7:14 p.m.

Reference frame: TEME

Reference center: EARTH

Epoch: Dec. 11, 2025, 3:15 p.m. UTC

TLE line 0: 0 FENGYUN 1C DEB

TLE line 1: 1 41822U 99025EXZ 25345.63571112 .00005882 00000-0 25007-2 0 9996

TLE line 2: 2 41822 98.7324 51.8512 0055337 223.6320 136.0477 14.24784752473573

Live tracking on map

Real-time ground track for satellite FENGYUN 1C DEB.

In-orbit conjunctions

A list of the most updated potential collisions computed for object FENGYUN 1C DEB.

Target Orbit TCA Probability of collision Miss distance Type
SL-16 DEB LEO 2025-08-25 01:30:43 0.0001720319 29.0 (m) DEBRIS
COSMOS 1833 LEO 2025-03-19 10:35:34 0.0001014664 386.0 (m) PAYLOAD
NOAA 11 SSO 2025-03-02 05:08:44 0.0001241796 958.0 (m) PAYLOAD
CZ-6A DEB LEO 2025-02-21 07:34:28 0.0006260037 156.0 (m) DEBRIS
CZ-6A DEB LEO 2024-12-04 04:58:56 0.0001946985 169.0 (m) DEBRIS

Associated space launch

Chinese polar orbiting meteorological satellite

FENGYUN 1C DEB was lifted into orbit during the mission ‘Long March 4B | Feng Yun 1C’, on board a Long March 4B space rocket.

The launch took place on May 10, 1999, 1:33 a.m. from Launch Complex 7.

For more information about the launch, click the button.

Launch to space Long March 4B | Feng Yun 1C
Long March 4B | Feng Yun 1C

Agency: N/A

Status: Launch Successful

Launch date: May 10, 1999, 1:33 a.m. UTC

Rocket: Long March 4B

Launch pad: Launch Complex 7

Location: Taiyuan Satellite Launch Center, People's Republic of China

...

Latest news about this satellite

There are no fresh news available about this satellite. Check back as we update our databases every day.


Newsletter sign-up

Weekly statistics, charts and insights to help you stay on top of the space industry.